Regional Weather Roundup
Issued by NWS Newport/Morehead, NC

Current Version | Previous Version | Text Only | Print | Product List | Glossary On
Versions: 1 2 3 4 5 6 7 8 9 10 11 12 13 14 15 16 17 18 19 20 21 22 23 24 25 26 27 28 29 30 31 32 33 34 35 36 37 38 39 40 41 42 43 44 45 46 47 48 49 50
000
ASUS42 KMHX 031513
RWRMHX
WEATHER ROUNDUP FOR EASTERN NORTH CAROLINA
NATIONAL WEATHER SERVICE NEWPORT/MOREHEAD CITY NC
1100 AM EDT THU SEP 03 2015

NOTE: "FAIR" INDICATES FEW OR NO CLOUDS BELOW 12,000 FEET
WITH NO SIGNIFICANT WEATHER AND/OR OBSTRUCTIONS TO VISIBILITY

NCZ015>017-031-032-045>047-102-103-031600-
NORTH COAST

CITY           SKY/WX    TMP DP  RH WIND       PRES   REMARKS
EDENTON        SUNNY     75  69  82 N5        29.95S
ELIZABETH CITY SUNNY     81  71  71 CALM      29.94S
KITTY HAWK     SUNNY     82  69  65 W5        29.93S
MANTEO         SUNNY     80  71  73 N6        29.94S

$$

NCZ045>047-081-094-103-104-031600-
CENTRAL COAST

CITY           SKY/WX    TMP DP  RH WIND       PRES   REMARKS
FRISCO         SUNNY     81  71  71 VRB3      29.94S
SWANQUARTER      N/A     81 N/A N/A NW7       29.91R

$$

NCZ095-097-098-100-101-031600-
SOUTHERN COAST

CITY           SKY/WX    TMP DP  RH WIND       PRES   REMARKS
BEAUFORT       SUNNY     81  73  76 NW5       29.95S
CEDAR ISLAND     N/A     81 N/A N/A NW2       29.97S
JACKSONVILLE   MOSUNNY   83  72  69 VRB5      29.95R
PINEY ISLAND   SUNNY    N/A N/A N/A W5        29.94S
WILMINGTON     LGT RAIN  82  74  76 N6        29.96R


$$

NCZ011>013-027>030-043-044-078>080-089-090>093-098-031600-
COASTAL PLAIN

CITY           SKY/WX    TMP DP  RH WIND       PRES   REMARKS
AHOSKIE        SUNNY     74  71  87 CALM      29.95
CLINTON        MOSUNNY   82  74  77 SW3       29.97S
ELIZABETHTOWN  PTSUNNY   80  73  77 W5        29.97S
GOLDSBORO      MOSUNNY   79  71  77 W6        29.95S
GREENVILLE     MOSUNNY   77  72  83 CALM      29.98R
HAVELOCK       MOSUNNY   82  71  69 N6        29.96S
KENANSVILLE      N/A     79  71  76 SW3       29.97F
KINSTON        SUNNY     81  72  74 W6        29.96S
NEW BERN       SUNNY     81  70  69 VRB5      29.96S
RICHLANDS      SUNNY     81  70  69 W5        29.96S
ROCKY MOUNT    SUNNY     79  70  74 NW7       29.97R
WASHINGTON     PTSUNNY   73  70  88 NW3       29.96R
WHITEVILLE     MOSUNNY   83  74  73 SW5       29.96S

$$

AMZ130-135-150-152-154-156-158-170-250-252-270-ANZ085-086-088-633-658-670-031600-
MARINE OBSERVATIONS

STATION/POSITION TIME  TEMP    WIND        PRES    WAVE   SWELL
                       AIR SEA DIR/SP/G            HT/PER HT/PER
                 (UTC) (F)     (DEG/KT/KT) (MB)    (FT/S) (FT/S)
CHESAPEAKE LIGHT 1500   80     310/  9/ 10 1013.8
64 E VA BEACH    1450   78 78  310/  8/ 10 1012.6    2/ 4   2/12
DUCK             1400   77 80  280/  7/  8 1012.9
2 E DUCK         1441      80                N/A     2/13
OREGON INLET     1400   78 82  260/  5/  7 1013.5
13E OREGON INLT  1500      80                N/A     2/13
HATTERAS CG      1400   78 82  330/  5/  6 1013.5
DIAMOND BUOY     1450   80 85   30/  4/  4 1013.8    1/13   2/13
CAPE LOOKOUT     1500   78      90/  4/  5 1013.9
BEAUFORT LAB     1400   79 81   10/  3/  4 1013.4
30 SE NEW RVR IN 1408   81 81  110/  2/  6 1014.3
30 SE NEW RVR IN 1425      82                N/A     2/ 9
27 SE WRIGHTSVLE 1400   78 82  220/  8/ 10   N/A
5 SE WRIGHTSVLE  NOT AVBL
225 S CAPE HAT   1450   84 84  310/  4/  6 1014.4    2/13   2/13
41 SE CHARLESTON 1450   78 84  240/  8/ 10 1015.0    2/ 7   2/ 7

$$



USA.gov is the U.S. government's official web portal to all federal, state and local government web resources and services.